Wind_Speed
37 37 38 39 40 41 41 41 41 41 40 41 42 43 44 45 45 44 44 45 46 45 44 43 42 42 41 42 42 42 42 43 43 42 42 42 44 45 47 49 51 55 59 59 57 58 59 58 59 60 59 57 57 57 57 57 56 54 54 56 58 61 63
39 40 39 39 38 39 40 40 41 41 42 43 44 46 47 46 44 44 45 46 47 46 44 42 42 41 41 42 42 42 41 42 42 42 42 41 42 44 45 47 50 53 56 58 57 56 57 57 57 59 60 59 58 57 57 57 57 56 55 53 54 56 59
42 44 44 44 43 42 42 42 43 44 45 46 47 48 49 47 46 47 48 47 47 46 44 42 42 41 42 42 43 42 42 41 41 41 41 41 41 42 43 45 47 50 53 56 57 56 56 55 55 57 58 58 59 59 58 58 57 57 57 55 54 53 53
41 43 45 46 46 46 45 44 45 46 46 47 48 48 48 48 48 47 47 46 46 45 45 44 43 42 43 43 44 44 43 42 41 40 40 40 40 40 42 43 44 46 50 53 55 56 55 53 53 54 55 55 57 58 59 60 60 58 57 56 56 55 53
40 41 43 45 45 46 46 45 45 45 46 47 47 47 47 46 46 46 46 46 46 47 47 46 46 45 45 45 46 45 44 43 41 39 39 39 40 39 40 41 42 43 46 49 52 54 54 53 51 51 52 52 54 54 55 57 60 61 59 57 56 56 55
40 41 42 43 44 44 45 45 45 45 46 46 47 47 47 47 48 48 48 48 49 49 49 49 49 48 47 47 47 46 45 43 40 38 38 38 38 38 38 39 40 41 43 46 49 51 52 52 50 49 49 50 50 52 52 53 56 59 60 60 58 56 55
40 41 41 42 43 43 44 44 44 44 44 45 45 46 46 47 48 49 49 50 50 50 49 50 50 49 47 47 46 45 43 40 38 37 37 37 37 37 37 37 37 39 40 42 45 47 49 50 49 48 48 48 47 47 49 51 52 54 56 59 59 58 57
39 40 41 41 42 42 43 43 43 43 43 43 43 44 44 45 46 47 47 47 47 47 47 48 48 46 45 44 42 41 39 38 37 36 36 36 36 36 36 36 36 36 37 39 42 44 46 47 48 47 47 46 45 44 46 48 50 52 53 54 55 56 55
39 39 40 40 41 41 41 41 41 41 42 42 42 42 43 43 44 44 44 44 43 43 43 43 43 42 40 39 38 37 37 36 35 34 34 34 35 35 35 35 35 35 35 37 39 41 42 44 45 45 45 44 44 43 44 45 46 48 49 50 50 51 51
39 39 39 39 39 39 39 39 40 40 40 40 40 41 42 42 42 42 41 41 40 40 39 39 39 38 37 36 36 35 36 35 34 34 33 33 33 33 33 34 34 34 34 35 36 39 40 41 42 43 42 42 42 41 41 41 42 43 45 46 47 47 47
37 37 38 38 37 37 37 37 38 38 38 38 39 39 40 40 40 39 39 39 38 37 37 37 36 35 35 35 34 34 35 34 34 34 33 32 32 32 32 32 33 33 34 34 35 36 37 38 39 40 40 38 38 37 37 38 41 42 41 41 43 44 44
34 35 35 35 35 35 36 36 36 36 37 38 38 38 38 38 38 37 37 37 36 35 34 34 34 33 33 33 33 34 34 34 34 33 33 32 32 31 32 32 32 32 32 33 34 34 35 36 37 38 38 37 35 34 33 34 37 40 41 40 39 40 41
33 33 33 34 34 34 34 34 34 35 36 36 35 35 35 35 36 37 37 36 35 34 33 32 33 33 33 33 33 33 33 34 34 33 33 33 32 32 32 32 32 32 31 31 32 33 33 34 35 37 37 36 35 33 32 32 33 36 39 39 37 37 38
33 32 32 32 33 33 32 31 32 33 33 33 33 32 32 34 35 36 36 35 34 33 33 33 33 33 33 33 33 33 33 33 34 34 33 33 33 33 32 32 32 32 31 31 31 32 32 33 34 35 36 35 35 34 34 35 35 35 37 38 38 37 36
32 31 31 31 32 32 30 29 30 31 31 30 29 29 31 33 35 35 35 35 34 33 33 33 33 33 33 33 33 33 33 34 35 35 34 34 33 33 34 34 34 33 33 32 31 31 32 32 33 34 35 35 36 36 36 37 38 38 38 38 39 39 38
30 30 30 30 30 30 29 28 29 30 29 28 28 28 31 32 33 34 34 34 33 33 33 33 33 33 33 33 34 34 34 35 35 35 35 34 34 34 34 35 35 35 34 33 32 31 31 32 33 34 35 36 38 39 38 38 39 40 41 41 41 41 41
28 29 29 28 28 27 26 26 27 27 27 27 27 29 31 32 32 32 32 32 32 31 30 30 30 30 31 31 32 32 33 34 35 35 34 33 32 32 33 34 35 35 34 34 33 31 31 32 33 34 35 37 39 40 41 40 40 41 43 43 43 44 43
26 27 28 27 26 25 23 22 23 23 23 24 25 27 29 29 29 28 28 27 27 26 26 26 25 26 27 27 28 28 29 31 32 31 30 28 28 28 29 31 33 33 33 33 32 32 31 32 32 33 34 36 38 41 42 43 42 42 42 44 44 45 45
24 25 26 25 23 22 21 20 19 19 19 20 21 23 24 23 22 22 22 22 22 22 22 22 22 23 23 23 24 24 26 28 27 24 22 22 22 24 27 29 30 31 31 31 31 30 30 31 31 32 33 35 37 39 42 44 45 44 43 43 44 45 46
23 23 23 23 21 20 19 18 18 17 17 17 18 18 18 17 17 17 18 18 19 19 19 19 20 20 21 21 21 22 24 24 21 18 16 18 21 25 27 28 27 28 28 28 28 28 28 29 29 30 31 33 35 37 39 42 45 46 45 45 44 44 45
22 22 21 21 20 18 17 17 16 15 15 16 16 14 13 13 14 14 15 16 16 17 17 17 18 18 19 19 19 21 22 19 15 14 15 18 22 24 25 24 24 25 25 25 25 25 25 26 27 28 29 31 32 34 35 37 40 43 45 46 46 45 44
21 20 20 20 18 18 16 15 15 14 13 14 14 11 10 11 12 13 14 14 15 15 15 16 16 17 17 17 18 20 20 15 12 14 17 18 19 20 21 21 20 21 22 22 22 22 22 23 24 25 26 28 29 31 32 33 35 37 40 43 44 45 45
20 19 19 19 18 17 16 15 14 13 12 13 13 10 9 11 12 13 13 14 14 15 15 16 16 16 16 17 17 18 18 15 13 15 17 17 17 19 20 19 17 17 18 19 19 19 20 20 21 22 23 25 26 27 28 29 31 32 33 35 37 39 41
20 19 18 18 17 16 15 14 14 13 12 12 12 10 9 10 12 12 13 14 15 15 16 16 16 15 15 16 17 17 16 15 14 14 15 15 16 18 18 18 16 15 16 16 16 17 17 18 19 20 21 22 22 23 24 25 26 27 28 28 29 31 32
19 18 18 17 16 16 15 14 14 13 12 11 11 10 9 10 11 12 13 14 15 15 16 16 15 14 14 14 15 15 15 15 14 14 13 14 14 14 15 15 15 14 14 14 14 15 15 16 17 18 18 19 19 20 20 21 21 22 22 23 24 24 25
18 18 17 16 15 14 14 14 13 13 13 12 11 10 9 10 10 11 12 13 14 15 15 15 14 14 13 13 14 14 14 13 13 12 12 11 11 11 11 11 12 12 12 12 12 13 13 14 15 15 16 16 16 17 17 17 17 18 18 18 18 19 20
18 17 17 16 15 14 13 14 13 13 13 13 13 12 11 10 10 10 11 12 13 14 14 13 13 12 12 12 12 12 11 11 10 9 9 8 7 7 7 8 8 8 9 9 10 10 11 12 12 13 13 14 14 14 14 14 14 14 14 14 15 15 15
17 17 16 16 15 14 13 13 13 13 13 14 14 13 13 12 11 11 11 12 12 12 12 11 11 10 10 10 9 9 8 8 7 6 5 5 5 5 5 5 6 6 7 8 8 9 9 10 11 12 12 12 13 13 13 13 13 13 13 13 13 13 13
16 16 16 15 15 15 14 13 13 13 13 13 13 13 13 12 12 12 12 12 11 10 9 9 8 8 8 7 7 7 6 5 4 4 3 3 3 4 4 5 6 6 7 8 8 9 10 10 11 12 12 12 13 13 13 13 13 12 12 12 12 12 12
16 16 16 15 15 15 14 13 12 11 12 12 12 13 13 12 12 12 11 10 10 9 8 7 7 6 6 5 5 4 3 3 3 3 4 4 4 5 5 6 6 7 7 8 8 9 9 10 11 11 11 12 12 12 11 11 11 11 11 10 11 11 11
16 16 16 15 15 15 14 13 11 10 11 11 12 12 12 11 11 11 10 9 9 8 7 6 5 5 4 4 3 3 4 4 4 5 5 5 5 5 5 5 6 6 6 7 7 8 8 9 10 10 10 10 10 10 11 11 11 11 11 11 11 11 11
15 16 16 16 15 14 14 13 11 10 10 11 11 12 11 9 9 10 10 8 8 7 6 5 4 4 3 4 4 5 5 5 5 5 4 4 4 4 5 5 5 6 6 7 7 8 8 9 9 9 10 10 11 11 11 12 12 12 12 12 11 11 11
16 15 16 16 15 15 15 14 11 9 9 9 10 11 11 9 7 8 9 8 7 6 5 4 4 4 5 5 5 5 5 5 5 4 4 4 4 4 5 5 6 6 7 7 7 8 8 8 9 10 10 11 11 11 12 12 12 12 11 12 12 12 12
16 16 16 16 16 15 15 14 12 10 9 8 8 9 10 9 7 7 8 8 7 6 5 5 5 6 6 5 5 5 5 5 5 4 4 4 4 4 5 5 6 6 7 7 8 8 9 9 10 10 10 10 11 11 11 11 11 11 12 13 13 12 10
17 16 16 16 16 15 14 14 13 12 10 8 8 8 9 9 7 7 7 7 7 7 7 7 7 6 6 6 6 6 6 5 4 4 4 4 4 4 5 6 6 7 8 8 9 9 9 10 10 10 10 10 9 9 10 10 10 12 12 12 11 8 6
17 17 16 16 16 15 14 14 14 13 12 10 9 8 8 8 8 7 7 7 8 9 9 8 7 7 7 7 7 6 5 5 4 4 4 4 4 5 6 7 8 8 9 10 10 10 10 10 10 9 9 9 9 9 10 10 12 12 11 9 7 4 2
Wind_Direction
275 275 274 272 270 272 276 278 280 280 279 278 278 278 281 282 281 279 279 281 283 285 287 284 278 276 277 277 277 277 276 274 272 270 268 266 262 259 257 255 255 256 255 254 253 252 252 251 251 249 247 245 244 243 243 243 243 244 244 243 242 241 241
276 276 276 275 274 274 275 275 277 278 278 277 278 280 282 282 279 278 279 282 283 284 285 282 277 276 277 278 278 277 278 277 274 272 269 267 264 261 258 256 255 255 255 255 254 252 251 251 251 251 250 248 246 245 245 245 245 244 244 244 243 243 242
274 274 276 277 278 277 276 275 275 276 276 277 278 278 279 280 279 279 281 283 283 284 283 280 277 276 278 280 280 279 280 280 276 274 271 268 265 263 260 258 256 255 255 255 255 253 252 251 250 251 251 250 249 247 247 247 247 246 246 246 245 244 243
276 274 275 276 277 277 276 275 274 274 274 275 275 275 277 279 280 281 282 282 281 281 280 279 279 278 278 280 282 281 282 282 277 274 271 268 266 264 261 259 256 255 255 255 255 254 253 251 250 249 250 251 250 248 248 248 248 248 248 248 247 246 244
279 277 276 276 276 277 277 276 274 273 273 273 274 275 276 278 278 278 278 277 277 278 278 279 280 280 280 281 282 283 284 282 277 273 271 268 266 264 262 260 257 255 254 254 254 254 253 252 250 249 249 249 250 249 248 247 248 249 249 249 249 248 247
281 279 277 276 276 276 276 276 275 274 273 274 274 274 274 274 274 274 274 274 275 276 277 279 280 281 282 281 282 283 282 279 275 271 269 267 266 265 263 261 258 255 253 253 253 253 253 253 251 249 248 247 248 249 248 247 247 247 248 249 249 249 248
283 281 279 278 277 277 276 276 276 275 275 274 274 274 274 274 274 274 274 275 276 277 278 279 280 281 282 282 281 280 278 275 271 269 267 265 264 264 263 261 258 256 253 252 252 252 253 253 252 250 248 246 246 247 247 247 246 246 246 248 248 249 249
285 283 281 280 279 278 278 277 277 276 276 275 275 275 275 274 274 275 275 276 277 278 278 279 280 280 280 279 278 276 273 270 268 266 265 264 262 262 261 260 259 256 253 251 251 250 251 251 252 251 249 247 245 244 243 244 245 245 245 246 247 248 249
287 284 282 281 280 279 278 278 278 277 277 276 275 275 274 274 275 275 276 277 277 277 277 277 277 277 276 275 273 272 270 267 265 264 263 262 261 260 260 259 258 256 253 250 249 249 249 249 250 251 250 248 245 243 241 241 243 245 245 245 246 247 247
290 287 285 283 281 280 279 278 278 277 277 276 276 275 274 274 274 275 275 275 275 275 275 275 275 274 273 271 270 269 268 266 264 263 263 263 261 259 259 258 257 256 253 250 248 248 248 248 248 249 250 249 247 245 241 237 238 241 243 243 243 244 245
293 290 289 287 284 282 280 279 278 278 277 277 276 276 275 275 275 275 275 274 273 273 273 273 272 272 271 270 269 268 267 265 264 263 263 263 261 259 259 258 257 256 254 251 249 247 247 247 247 248 249 249 247 246 243 238 234 235 238 240 240 241 242
295 293 291 289 287 285 283 282 281 280 278 277 276 275 275 274 274 274 274 274 273 273 273 272 272 271 271 270 270 269 268 266 264 263 262 262 262 261 260 260 259 257 255 252 250 247 246 245 245 246 247 247 245 242 241 240 236 233 233 236 238 238 238
298 295 293 290 288 286 285 285 283 281 279 277 276 275 273 271 271 272 273 273 274 274 275 275 274 273 272 272 272 271 270 268 265 263 262 261 261 261 261 260 260 259 256 253 250 248 246 244 243 244 244 243 241 238 235 235 236 234 233 233 235 236 236
299 297 294 292 290 289 288 287 284 282 280 279 278 275 272 269 269 271 273 274 275 276 276 276 275 274 273 273 272 272 270 269 266 264 262 261 261 261 261 260 260 259 258 255 251 249 246 244 242 242 242 240 238 236 232 230 230 231 231 232 233 234 235
301 299 297 294 293 291 290 288 284 282 281 281 279 275 271 269 270 272 274 276 277 277 276 275 275 275 273 271 270 268 267 266 265 264 263 261 261 260 260 260 259 258 257 255 252 249 247 244 241 240 239 238 235 233 231 229 227 227 228 228 230 232 233
303 301 299 297 295 293 291 288 284 283 282 281 278 275 272 272 273 275 277 278 278 277 276 275 274 273 271 269 267 265 263 262 262 262 261 260 260 259 259 258 257 255 254 253 251 249 247 245 242 240 237 235 234 232 230 228 227 226 226 226 227 228 230
304 304 302 300 299 297 296 291 286 284 283 280 277 275 274 275 276 277 278 278 278 277 276 274 273 271 270 268 266 264 262 261 260 259 260 260 259 258 257 256 255 254 253 252 251 249 247 245 244 241 239 236 235 233 231 229 227 226 226 226 227 227 228
307 307 305 305 304 302 301 297 292 289 285 281 278 276 276 278 279 280 280 278 277 276 274 272 271 269 268 266 266 265 264 262 260 260 261 261 260 258 256 254 253 252 252 251 250 248 247 246 244 241 239 238 236 235 234 232 230 228 226 226 227 228 229
309 309 307 307 307 305 304 301 298 295 291 286 281 280 282 283 283 281 280 277 274 271 269 267 265 264 263 263 263 263 262 262 263 263 263 260 257 254 252 252 251 251 250 249 248 247 246 245 243 241 239 238 237 237 235 234 233 231 229 228 228 228 229
309 309 309 308 307 306 306 303 301 299 295 289 286 286 288 287 283 279 275 272 269 267 265 263 262 262 262 262 261 261 262 264 267 267 261 253 249 247 247 249 250 250 250 248 247 246 246 244 243 241 239 238 238 238 238 237 236 234 233 232 231 231 231
307 308 308 308 307 307 307 305 303 301 296 292 292 292 288 282 276 273 271 269 268 267 266 265 264 263 263 263 263 264 267 270 273 272 262 252 248 248 249 250 251 251 251 249 247 246 245 244 243 241 240 238 238 238 239 239 238 237 236 236 235 235 235
305 307 307 307 307 307 306 305 304 302 297 295 296 294 284 275 270 268 268 269 269 268 268 268 267 267 268 269 268 270 274 276 275 270 265 259 258 258 256 253 251 251 251 250 248 246 244 242 241 240 239 238 238 238 238 239 239 239 238 238 238 239 240
302 304 304 305 305 304 304 303 302 301 299 297 297 293 280 271 269 269 270 270 271 271 272 272 273 273 274 274 273 275 278 279 270 264 263 262 261 261 261 259 255 253 251 249 246 244 241 240 238 238 237 237 236 236 237 237 238 238 237 238 238 239 241
300 300 301 302 302 301 301 300 300 300 299 296 296 293 279 270 270 271 271 272 273 275 275 276 278 280 279 277 277 277 277 276 271 265 262 259 255 255 258 260 258 254 250 247 244 241 237 235 234 234 234 233 233 233 234 234 234 235 235 235 235 236 238
296 297 298 299 300 300 299 299 298 299 298 296 295 293 283 275 274 274 273 274 276 279 281 283 286 287 284 280 278 277 276 274 272 269 264 259 257 254 253 253 252 250 247 244 241 237 233 230 230 229 229 228 228 228 228 229 229 230 230 230 231 231 233
293 294 295 297 298 298 297 297 298 299 299 298 297 296 290 282 277 274 273 274 276 279 283 287 289 289 286 281 277 276 275 274 272 270 267 263 260 257 251 247 246 243 239 236 232 229 226 223 222 222 221 220 220 219 219 220 220 220 221 221 222 223 224
289 289 291 294 295 295 294 295 297 298 300 301 301 299 295 289 283 278 275 275 277 281 284 285 285 283 281 279 276 273 272 272 272 271 269 265 259 252 245 239 234 228 223 219 215 212 210 208 207 207 206 205 205 204 204 204 204 204 204 204 206 208 210
284 285 288 290 293 293 293 293 294 296 297 298 298 298 297 296 293 287 283 282 283 285 285 284 281 278 276 274 272 270 270 270 269 267 262 254 244 231 221 214 206 199 194 191 188 186 184 183 182 181 181 181 181 181 182 183 183 184 184 185 187 190 192
280 281 283 287 291 293 293 292 292 292 292 292 292 293 296 298 297 292 289 288 288 287 285 282 278 274 272 269 266 265 264 260 254 244 228 211 196 183 176 172 169 166 163 161 160 161 160 160 161 163 163 165 167 168 170 172 173 174 176 177 178 179 182
277 277 279 282 287 292 294 294 292 289 288 287 289 291 294 297 296 293 290 289 288 287 285 281 276 270 266 261 255 250 239 220 201 183 172 167 162 157 154 153 155 155 154 154 156 158 160 161 162 163 163 165 166 166 167 167 168 170 170 169 168 170 174
275 274 276 278 283 288 293 295 293 288 284 284 286 289 293 295 292 289 287 284 284 285 282 275 268 261 252 239 222 197 180 172 167 162 162 163 162 162 162 163 165 167 168 168 169 170 171 170 168 167 165 164 163 163 163 164 164 164 164 164 165 169 173
273 272 272 275 280 285 290 292 291 284 278 281 285 288 291 291 285 282 282 282 280 277 272 262 251 234 212 194 183 173 167 169 170 169 172 176 177 180 181 182 184 185 184 184 182 178 175 170 166 163 160 158 158 158 158 159 160 160 162 164 165 166 166
272 269 268 271 275 280 285 287 286 277 270 272 279 284 288 287 277 272 276 277 271 260 250 233 210 193 181 176 178 176 174 179 182 182 186 188 187 188 189 188 188 186 182 180 176 171 166 161 157 155 153 152 153 154 154 156 158 159 160 160 159 158 157
272 269 266 267 270 274 279 282 282 276 269 267 268 274 281 283 272 262 263 261 250 234 216 196 184 180 178 181 189 191 188 189 190 187 187 188 184 183 184 185 183 179 173 169 164 160 156 153 150 149 149 150 152 153 155 157 158 156 155 154 153 152 154
271 269 266 265 266 269 272 276 278 276 273 270 266 264 269 272 267 260 252 241 225 209 194 184 183 186 187 192 201 203 198 193 190 185 184 184 181 181 181 180 177 171 164 160 156 153 151 149 148 148 150 152 155 157 158 157 155 153 151 150 151 154 159
270 269 267 266 265 266 267 269 271 272 272 271 267 260 258 257 255 250 239 223 209 198 190 189 193 198 197 197 200 204 201 195 190 186 186 186 184 183 179 174 169 164 158 155 152 150 149 149 150 152 155 158 161 160 158 155 154 151 149 148 148 149 152
Height
2920 2920 2919 2918 2917 2915 2914 2912 2911 2910 2910 2909 2908 2907 2907 2906 2906 2905 2904 2903 2902 2901 2900 2899 2899 2898 2898 2897 2896 2896 2895 2895 2895 2895 2895 2895 2895 2896 2896 2896 2894 2892 2894 2897 2899 2902 2905 2907 2910 2913 2917 2920 2922 2924 2926 2928 2930 2932 2934 2936 2938 2940 2943
2915 2914 2913 2912 2911 2910 2909 2907 2906 2905 2904 2903 2902 2901 2900 2900 2899 2899 2898 2897 2896 2895 2894 2893 2893 2893 2892 2891 2890 2890 2890 2889 2889 2888 2889 2889 2889 2889 2889 2889 2889 2888 2888 2889 2891 2895 2897 2899 2903 2905 2908 2912 2914 2916 2918 2920 2922 2925 2927 2928 2930 2933 2935
2909 2908 2907 2906 2905 2904 2903 2902 2901 2899 2898 2897 2896 2895 2894 2893 2893 2892 2891 2891 2890 2889 2888 2887 2887 2887 2886 2885 2884 2884 2884 2883 2883 2882 2882 2882 2882 2882 2882 2883 2883 2883 2883 2883 2884 2887 2890 2893 2896 2898 2900 2904 2906 2909 2911 2913 2915 2917 2919 2921 2923 2926 2928
2903 2902 2901 2900 2898 2898 2897 2896 2895 2893 2892 2891 2890 2889 2888 2887 2886 2885 2884 2884 2883 2882 2881 2881 2881 2881 2880 2880 2878 2878 2878 2877 2877 2877 2876 2876 2876 2876 2876 2876 2877 2877 2877 2877 2877 2879 2882 2885 2889 2891 2893 2895 2898 2901 2904 2906 2908 2910 2912 2914 2916 2918 2921
2897 2896 2894 2893 2892 2891 2890 2889 2888 2887 2886 2885 2884 2883 2882 2880 2879 2879 2878 2877 2877 2876 2875 2874 2874 2874 2874 2874 2873 2872 2872 2871 2871 2871 2870 2870 2870 2870 2870 2870 2871 2872 2872 2871 2871 2873 2875 2878 2881 2884 2887 2888 2890 2893 2896 2899 2901 2903 2905 2907 2909 2911 2913
2891 2890 2888 2887 2886 2885 2883 2882 2881 2880 2879 2878 2877 2876 2875 2874 2873 2872 2871 2871 2870 2869 2869 2868 2868 2868 2868 2868 2867 2866 2866 2865 2865 2865 2865 2864 2864 2864 2864 2864 2865 2866 2866 2866 2866 2867 2868 2871 2874 2877 2879 2882 2883 2886 2889 2891 2893 2896 2898 2900 2902 2905 2907
2885 2883 2882 2880 2879 2878 2876 2875 2874 2873 2872 2871 2870 2869 2868 2867 2866 2865 2865 2864 2864 2863 2862 2862 2861 2861 2862 2861 2860 2860 2859 2859 2859 2859 2859 2858 2858 2858 2858 2859 2859 2859 2860 2861 2861 2861 2862 2864 2867 2869 2872 2875 2878 2880 2882 2883 2885 2888 2890 2893 2896 2899 2901
2878 2877 2875 2874 2872 2871 2870 2868 2867 2867 2866 2865 2864 2863 2862 2861 2859 2859 2858 2858 2857 2857 2856 2855 2855 2855 2855 2854 2854 2853 2853 2853 2854 2853 2853 2853 2853 2853 2853 2853 2854 2854 2855 2855 2856 2856 2857 2859 2860 2862 2865 2869 2872 2873 2875 2876 2878 2880 2883 2886 2889 2892 2895
2872 2870 2869 2867 2866 2864 2863 2862 2861 2860 2859 2858 2857 2856 2855 2854 2853 2852 2852 2852 2851 2850 2849 2849 2848 2849 2848 2848 2848 2848 2847 2847 2848 2848 2847 2848 2848 2848 2848 2848 2848 2849 2849 2850 2850 2851 2852 2853 2855 2856 2859 2862 2864 2866 2868 2871 2872 2873 2876 2880 2883 2886 2888
2865 2864 2862 2861 2859 2858 2857 2856 2855 2854 2854 2852 2851 2850 2849 2848 2847 2847 2846 2846 2845 2844 2844 2843 2843 2843 2843 2842 2842 2842 2842 2842 2842 2842 2842 2842 2843 2843 2843 2843 2843 2843 2844 2845 2845 2846 2847 2848 2850 2851 2853 2855 2857 2860 2863 2865 2867 2868 2871 2874 2877 2879 2882
2859 2858 2856 2854 2853 2852 2851 2850 2849 2849 2848 2847 2845 2844 2842 2842 2841 2841 2840 2840 2839 2839 2839 2838 2837 2837 2837 2837 2837 2836 2836 2836 2836 2836 2837 2837 2838 2838 2838 2838 2838 2838 2839 2840 2840 2841 2842 2844 2845 2846 2847 2849 2851 2854 2857 2859 2861 2863 2866 2868 2870 2873 2876
2854 2852 2851 2849 2847 2846 2845 2844 2844 2843 2841 2840 2839 2838 2837 2836 2835 2835 2834 2833 2833 2834 2833 2833 2832 2832 2832 2831 2831 2831 2831 2831 2831 2831 2831 2832 2832 2833 2833 2833 2833 2834 2834 2835 2835 2837 2838 2839 2840 2841 2843 2844 2847 2849 2851 2854 2856 2858 2860 2863 2865 2867 2870
2850 2848 2846 2843 2842 2840 2840 2839 2838 2836 2835 2834 2833 2833 2832 2830 2829 2829 2828 2828 2828 2828 2828 2828 2827 2827 2827 2826 2826 2826 2825 2825 2825 2825 2826 2827 2827 2828 2828 2828 2828 2829 2830 2830 2831 2832 2833 2834 2835 2836 2838 2840 2842 2844 2847 2849 2851 2852 2855 2857 2860 2862 2864
2845 2843 2841 2838 2837 2835 2835 2834 2832 2830 2829 2829 2828 2828 2826 2825 2824 2823 2823 2823 2824 2823 2823 2823 2822 2822 2822 2821 2821 2820 2820 2820 2819 2820 2821 2821 2822 2822 2823 2823 2823 2824 2825 2826 2826 2827 2828 2829 2830 2831 2833 2835 2837 2839 2842 2844 2846 2847 2850 2852 2854 2857 2859
2840 2838 2836 2834 2832 2830 2830 2829 2827 2825 2824 2824 2823 2823 2821 2819 2819 2819 2819 2819 2819 2818 2818 2817 2817 2816 2816 2816 2815 2815 2814 2814 2814 2814 2815 2816 2817 2817 2817 2818 2818 2819 2820 2821 2822 2822 2823 2824 2825 2827 2829 2830 2832 2834 2836 2838 2841 2843 2845 2847 2849 2852 2854
2836 2833 2831 2829 2827 2826 2825 2824 2822 2820 2820 2820 2819 2818 2816 2815 2815 2814 2814 2814 2813 2813 2812 2812 2811 2811 2810 2810 2809 2809 2809 2809 2809 2809 2810 2810 2811 2811 2812 2812 2812 2813 2814 2815 2817 2818 2818 2819 2820 2821 2823 2825 2826 2828 2830 2833 2835 2838 2840 2842 2844 2846 2848
2832 2829 2827 2825 2823 2821 2820 2819 2817 2816 2815 2815 2814 2813 2811 2811 2811 2810 2809 2809 2808 2808 2807 2807 2806 2806 2805 2804 2804 2804 2804 2804 2804 2804 2804 2805 2806 2806 2806 2806 2807 2808 2809 2810 2812 2813 2813 2814 2815 2817 2818 2819 2821 2823 2825 2828 2830 2832 2834 2837 2839 2840 2842
2829 2826 2823 2821 2819 2817 2816 2815 2813 2812 2811 2810 2809 2808 2807 2807 2806 2806 2805 2804 2803 2803 2802 2802 2801 2801 2800 2800 2799 2799 2799 2799 2799 2800 2800 2801 2801 2801 2801 2801 2802 2803 2805 2806 2807 2807 2808 2809 2810 2811 2813 2814 2816 2817 2820 2822 2825 2827 2830 2832 2834 2836 2838
2825 2823 2820 2818 2816 2814 2813 2811 2810 2809 2808 2807 2805 2804 2803 2803 2803 2802 2801 2800 2799 2799 2798 2798 2797 2797 2796 2796 2796 2795 2795 2794 2795 2796 2797 2797 2796 2796 2796 2796 2797 2798 2800 2801 2801 2802 2803 2804 2805 2806 2808 2809 2811 2812 2814 2817 2819 2822 2824 2826 2828 2831 2833
2822 2820 2817 2815 2813 2812 2810 2808 2807 2806 2805 2804 2803 2802 2801 2800 2799 2798 2797 2797 2796 2795 2795 2794 2794 2793 2793 2792 2792 2791 2790 2791 2792 2793 2793 2793 2792 2791 2791 2792 2793 2794 2795 2796 2797 2798 2799 2799 2801 2802 2803 2805 2806 2808 2810 2811 2814 2816 2819 2821 2824 2826 2828
2819 2817 2815 2813 2811 2809 2808 2806 2805 2804 2802 2801 2800 2800 2799 2797 2797 2796 2795 2794 2794 2793 2792 2792 2791 2791 2790 2790 2789 2788 2788 2789 2790 2790 2789 2789 2788 2788 2788 2789 2790 2790 2791 2792 2793 2794 2794 2795 2796 2798 2799 2800 2802 2804 2805 2807 2809 2811 2814 2816 2819 2821 2823
2816 2814 2812 2810 2809 2807 2805 2804 2803 2802 2800 2799 2798 2798 2797 2795 2794 2794 2793 2792 2792 2791 2790 2790 2789 2788 2788 2788 2787 2786 2785 2786 2787 2786 2785 2785 2785 2785 2785 2786 2787 2787 2788 2788 2789 2790 2791 2792 2793 2794 2795 2797 2798 2800 2801 2803 2804 2806 2809 2811 2814 2816 2819
2813 2811 2809 2808 2806 2805 2803 2802 2801 2800 2798 2797 2796 2796 2795 2794 2793 2792 2791 2790 2790 2789 2788 2788 2787 2787 2786 2786 2785 2784 2783 2784 2784 2783 2783 2783 2783 2782 2782 2783 2784 2784 2785 2785 2786 2787 2788 2789 2790 2791 2792 2793 2795 2796 2798 2799 2801 2803 2805 2807 2810 2812 2814
2810 2809 2807 2805 2804 2803 2801 2800 2799 2798 2797 2795 2794 2794 2793 2792 2791 2790 2789 2788 2788 2787 2786 2786 2785 2785 2784 2784 2783 2782 2782 2781 2781 2781 2781 2781 2780 2780 2780 2781 2781 2782 2782 2783 2783 2784 2785 2786 2787 2788 2789 2790 2792 2793 2795 2796 2798 2800 2801 2804 2806 2808 2810
2808 2806 2804 2803 2802 2801 2799 2798 2797 2796 2795 2794 2793 2792 2792 2791 2790 2789 2788 2786 2786 2785 2784 2784 2783 2782 2782 2781 2781 2780 2779 2779 2779 2778 2778 2778 2778 2778 2778 2779 2779 2779 2780 2780 2781 2782 2783 2783 2784 2786 2787 2788 2789 2791 2792 2794 2795 2797 2799 2801 2803 2805 2806
2805 2803 2802 2801 2800 2799 2797 2796 2795 2794 2793 2792 2791 2790 2790 2789 2788 2787 2786 2785 2784 2783 2782 2782 2781 2780 2780 2779 2778 2778 2777 2777 2777 2776 2776 2776 2776 2776 2777 2777 2777 2777 2778 2778 2779 2780 2781 2782 2783 2784 2785 2786 2788 2789 2790 2792 2793 2795 2797 2798 2800 2802 2804
2802 2801 2799 2798 2798 2797 2795 2794 2793 2792 2791 2790 2789 2788 2788 2787 2786 2785 2784 2783 2782 2781 2781 2780 2779 2778 2778 2777 2777 2776 2776 2775 2775 2775 2775 2775 2775 2775 2775 2775 2776 2776 2777 2777 2778 2779 2779 2781 2782 2783 2784 2785 2786 2788 2789 2790 2792 2793 2795 2797 2798 2800 2802
2799 2798 2797 2796 2795 2794 2793 2792 2791 2790 2789 2788 2787 2786 2785 2784 2784 2783 2782 2781 2780 2780 2779 2778 2777 2777 2776 2776 2775 2775 2774 2774 2774 2774 2774 2774 2774 2774 2775 2775 2775 2776 2776 2777 2777 2778 2779 2780 2781 2782 2783 2784 2786 2787 2788 2790 2791 2793 2794 2796 2797 2799 2801
2796 2795 2794 2793 2793 2792 2791 2790 2789 2788 2787 2786 2785 2784 2783 2783 2782 2781 2780 2779 2778 2778 2777 2777 2776 2775 2775 2775 2774 2774 2774 2774 2774 2774 2774 2774 2774 2774 2775 2775 2775 2776 2776 2777 2778 2778 2779 2780 2781 2782 2783 2784 2786 2787 2788 2789 2791 2792 2794 2795 2797 2798 2800
2794 2792 2791 2791 2790 2789 2789 2788 2787 2786 2785 2784 2783 2782 2782 2781 2780 2779 2778 2777 2777 2776 2776 2775 2775 2774 2774 2774 2773 2773 2773 2773 2774 2774 2774 2774 2774 2775 2775 2775 2776 2776 2777 2778 2778 2779 2780 2781 2782 2783 2784 2785 2786 2787 2788 2789 2791 2792 2793 2795 2796 2797 2799
2791 2790 2789 2788 2787 2787 2786 2785 2785 2784 2783 2782 2781 2780 2780 2779 2778 2777 2777 2776 2775 2775 2774 2774 2774 2773 2773 2773 2773 2773 2773 2773 2774 2774 2774 2774 2775 2775 2776 2776 2776 2777 2777 2778 2779 2779 2780 2781 2782 2783 2784 2785 2786 2787 2788 2789 2790 2792 2793 2794 2796 2797 2798
2788 2787 2786 2785 2784 2784 2783 2783 2783 2782 2781 2780 2779 2778 2778 2778 2777 2776 2775 2775 2774 2774 2774 2773 2773 2773 2773 2773 2773 2773 2774 2774 2774 2774 2775 2775 2775 2775 2776 2776 2777 2777 2777 2778 2779 2779 2780 2781 2782 2783 2784 2785 2786 2787 2788 2789 2790 2792 2793 2794 2795 2797 2798
2785 2784 2783 2782 2782 2781 2781 2780 2780 2780 2779 2779 2778 2777 2776 2776 2775 2775 2774 2773 2773 2773 2773 2773 2773 2773 2773 2773 2773 2774 2774 2774 2774 2775 2775 2775 2775 2775 2776 2776 2776 2777 2777 2778 2779 2779 2780 2781 2782 2783 2784 2785 2786 2787 2788 2789 2790 2791 2793 2794 2795 2796 2797
2782 2781 2781 2780 2779 2779 2778 2778 2778 2777 2777 2777 2776 2775 2774 2774 2774 2773 2773 2772 2772 2772 2772 2772 2773 2773 2773 2773 2774 2774 2774 2774 2774 2775 2775 2775 2775 2775 2776 2776 2776 2777 2777 2778 2779 2779 2780 2781 2782 2783 2784 2785 2786 2787 2788 2789 2790 2791 2792 2794 2795 2796 2797
2778 2778 2778 2777 2777 2776 2776 2775 2775 2775 2774 2774 2774 2774 2773 2773 2772 2772 2772 2772 2772 2772 2772 2772 2772 2773 2773 2773 2774 2774 2774 2774 2774 2774 2775 2775 2775 2775 2776 2776 2777 2777 2778 2778 2779 2780 2781 2781 2782 2783 2784 2785 2786 2787 2788 2789 2790 2791 2792 2794 2795 2796 2797
2775 2775 2775 2774 2774 2774 2773 2773 2772 2772 2772 2772 2772 2771 2771 2771 2771 2771 2771 2771 2771 2771 2771 2772 2772 2773 2773 2773 2774 2774 2774 2774 2774 2774 2774 2775 2775 2776 2776 2776 2777 2778 2778 2779 2779 2780 2781 2782 2783 2783 2784 2785 2786 2787 2788 2789 2790 2791 2793 2794 2795 2796 2796